Time,TemperatureF,DewpointF,PressureIn,WindDirection,WindDirectionDegrees,WindSpeedMPH,WindSpeedGustMPH,Humidity,HourlyPrecipIn,Conditions,Clouds,dailyrainin,SoftwareType,DateUTC
2013-07-19 00:02:00,77.5,72.0,29.98,WSW,248,2.0,4.0,83,0.00,,,0.00,meteohub,2013-07-19 04:02:00,
2013-07-19 00:07:00,77.4,71.8,29.97,West,270,3.0,4.0,83,0.00,,,0.00,meteohub,2013-07-19 04:07:00,
2013-07-19 00:12:00,77.4,71.8,29.97,West,270,3.0,3.0,83,0.00,,,0.00,meteohub,2013-07-19 04:12:00,
2013-07-19 00:15:00,77.4,72.1,29.97,NW,315,2.0,3.0,84,0.00,,,0.00,meteohub,2013-07-19 04:15:00,
2013-07-19 00:16:00,77.4,72.1,29.97,NW,315,2.0,3.0,84,0.00,,,0.00,meteohub,2013-07-19 04:16:00,
2013-07-19 00:17:00,77.4,72.1,29.97,NW,315,2.0,3.0,84,0.00,,,0.00,meteohub,2013-07-19 04:17:00,
2013-07-19 00:22:00,77.5,72.3,29.97,NW,315,0.0,3.0,84,0.00,,,0.00,meteohub,2013-07-19 04:22:00,
2013-07-19 00:27:00,77.4,72.1,29.96,NW,315,0.0,3.0,84,0.00,,,0.00,meteohub,2013-07-19 04:27:00,
2013-07-19 00:32:00,77.2,72.0,29.96,NE,45,2.0,2.0,84,0.00,,,0.00,meteohub,2013-07-19 04:32:00,
2013-07-19 00:37:00,77.0,71.8,29.96,NE,45,0.0,2.0,84,0.00,,,0.00,meteohub,2013-07-19 04:37:00,
2013-07-19 00:45:00,76.8,71.6,29.96,NE,45,2.0,2.0,84,0.00,,,0.00,meteohub,2013-07-19 04:45:00,
2013-07-19 00:50:00,76.5,71.6,29.96,West,270,4.0,4.0,85,0.00,,,0.00,meteohub,2013-07-19 04:50:00,
2013-07-19 00:55:00,76.6,71.8,29.96,West,270,5.0,5.0,85,0.00,,,0.00,meteohub,2013-07-19 04:55:00,
2013-07-19 01:00:00,76.8,72.3,29.96,WSW,248,8.0,8.0,86,0.00,,,0.00,meteohub,2013-07-19 05:00:00,
2013-07-19 01:05:00,77.2,72.7,29.95,West,270,5.0,8.0,86,0.00,,,0.00,meteohub,2013-07-19 05:05:00,
2013-07-19 01:10:00,77.0,72.5,29.95,WSW,248,5.0,9.0,86,0.00,,,0.00,meteohub,2013-07-19 05:10:00,
2013-07-19 01:16:00,77.2,73.0,29.95,NW,315,4.0,9.0,87,0.00,,,0.00,meteohub,2013-07-19 05:16:00,
2013-07-19 01:21:00,77.4,72.9,29.95,NW,315,4.0,7.0,86,0.00,,,0.00,meteohub,2013-07-19 05:21:00,
2013-07-19 01:26:00,77.2,72.7,29.95,NW,315,5.0,5.0,86,0.00,,,0.00,meteohub,2013-07-19 05:26:00,
2013-07-19 01:31:00,77.2,72.7,29.95,WSW,248,4.0,5.0,86,0.00,,,0.00,meteohub,2013-07-19 05:31:00,
2013-07-19 01:36:00,77.2,72.7,29.95,NW,315,4.0,5.0,86,0.00,,,0.00,meteohub,2013-07-19 05:36:00,
2013-07-19 01:41:00,77.0,72.5,29.95,NW,315,3.0,5.0,86,0.00,,,0.00,meteohub,2013-07-19 05:41:00,
2013-07-19 01:46:00,77.0,72.9,29.96,NW,315,7.0,7.0,87,0.00,,,0.00,meteohub,2013-07-19 05:46:00,
2013-07-19 01:51:00,77.0,72.9,29.96,NW,315,6.0,7.0,87,0.00,,,0.00,meteohub,2013-07-19 05:51:00,
2013-07-19 01:56:00,77.0,72.9,29.96,West,270,5.0,7.0,87,0.00,,,0.00,meteohub,2013-07-19 05:56:00,
2013-07-19 02:01:00,77.0,72.9,29.96,WNW,293,9.0,9.0,87,0.00,,,0.00,meteohub,2013-07-19 06:01:00,
2013-07-19 02:06:00,77.2,73.0,29.96,WNW,293,8.0,10.0,87,0.00,,,0.00,meteohub,2013-07-19 06:06:00,
2013-07-19 02:12:00,77.4,73.2,29.96,NW,315,12.0,12.0,87,0.00,,,0.00,meteohub,2013-07-19 06:12:00,
2013-07-19 02:17:00,77.5,73.8,29.96,West,270,11.0,12.0,88,0.00,,,0.00,meteohub,2013-07-19 06:17:00,
2013-07-19 02:22:00,77.5,73.8,29.96,NW,315,6.0,12.0,88,0.00,,,0.00,meteohub,2013-07-19 06:22:00,
2013-07-19 02:27:00,77.7,73.9,29.95,WNW,293,9.0,12.0,88,0.00,,,0.00,meteohub,2013-07-19 06:27:00,
2013-07-19 02:32:00,77.9,74.1,29.95,West,270,9.0,11.0,88,0.00,,,0.00,meteohub,2013-07-19 06:32:00,
2013-07-19 02:37:00,77.9,74.1,29.95,West,270,8.0,9.0,88,0.00,,,0.00,meteohub,2013-07-19 06:37:00,
2013-07-19 02:42:00,77.7,73.9,29.95,NW,315,9.0,10.0,88,0.00,,,0.00,meteohub,2013-07-19 06:42:00,
2013-07-19 02:47:00,77.9,74.1,29.95,NW,315,6.0,10.0,88,0.00,,,0.00,meteohub,2013-07-19 06:47:00,
2013-07-19 02:52:00,77.9,74.1,29.95,WNW,293,8.0,9.0,88,0.00,,,0.00,meteohub,2013-07-19 06:52:00,
2013-07-19 02:57:00,77.7,73.9,29.95,NW,315,5.0,9.0,88,0.00,,,0.00,meteohub,2013-07-19 06:57:00,
2013-07-19 03:02:00,77.5,73.8,29.95,WNW,293,6.0,9.0,88,0.00,,,0.00,meteohub,2013-07-19 07:02:00,
2013-07-19 03:07:00,77.5,73.8,29.95,NW,315,6.0,8.0,88,0.00,,,0.00,meteohub,2013-07-19 07:07:00,
2013-07-19 03:12:00,77.5,73.8,29.95,NW,315,6.0,8.0,88,0.00,,,0.00,meteohub,2013-07-19 07:12:00,
2013-07-19 03:17:00,77.2,73.0,29.95,NW,315,4.0,8.0,87,0.00,,,0.00,meteohub,2013-07-19 07:17:00,
2013-07-19 03:22:00,77.2,73.0,29.95,NW,315,4.0,6.0,87,0.00,,,0.00,meteohub,2013-07-19 07:22:00,
2013-07-19 03:27:00,77.2,73.4,29.95,NNW,338,4.0,6.0,88,0.00,,,0.00,meteohub,2013-07-19 07:27:00,
2013-07-19 03:32:00,77.2,73.4,29.95,NNW,338,4.0,5.0,88,0.00,,,0.00,meteohub,2013-07-19 07:32:00,
2013-07-19 03:37:00,77.0,73.2,29.95,West,270,3.0,5.0,88,0.00,,,0.00,meteohub,2013-07-19 07:37:00,
2013-07-19 03:42:00,76.8,73.0,29.95,NW,315,2.0,5.0,88,0.00,,,0.00,meteohub,2013-07-19 07:42:00,
2013-07-19 03:47:00,76.8,73.0,29.94,NW,315,0.0,4.0,88,0.00,,,0.00,meteohub,2013-07-19 07:47:00,
2013-07-19 03:52:00,76.8,73.0,29.94,NW,315,2.0,3.0,88,0.00,,,0.00,meteohub,2013-07-19 07:52:00,
2013-07-19 03:57:00,76.6,72.9,29.94,WSW,248,4.0,4.0,88,0.00,,,0.00,meteohub,2013-07-19 07:57:00,
2013-07-19 04:02:00,76.6,72.9,29.94,NW,315,3.0,4.0,88,0.00,,,0.00,meteohub,2013-07-19 08:02:00,
2013-07-19 04:07:00,76.8,73.4,29.94,NNW,338,5.0,5.0,89,0.00,,,0.00,meteohub,2013-07-19 08:07:00,
2013-07-19 04:12:00,76.6,73.2,29.94,NW,315,6.0,6.0,89,0.00,,,0.00,meteohub,2013-07-19 08:12:00,
2013-07-19 04:17:00,76.8,73.4,29.94,NW,315,6.0,6.0,89,0.00,,,0.00,meteohub,2013-07-19 08:17:00,
2013-07-19 04:22:00,77.2,73.8,29.94,NW,315,6.0,6.0,89,0.00,,,0.00,meteohub,2013-07-19 08:22:00,
2013-07-19 04:27:00,77.2,73.8,29.94,NW,315,5.0,6.0,89,0.00,,,0.00,meteohub,2013-07-19 08:27:00,
2013-07-19 04:32:00,77.4,74.1,29.94,West,270,7.0,8.0,90,0.00,,,0.00,meteohub,2013-07-19 08:32:00,
2013-07-19 04:37:00,77.4,74.1,29.94,WNW,293,5.0,8.0,90,0.00,,,0.00,meteohub,2013-07-19 08:37:00,
2013-07-19 04:42:00,77.5,74.3,29.94,NW,315,3.0,8.0,90,0.00,,,0.00,meteohub,2013-07-19 08:42:00,
2013-07-19 04:47:00,77.5,74.3,29.94,NW,315,6.0,7.0,90,0.00,,,0.00,meteohub,2013-07-19 08:47:00,
2013-07-19 04:52:00,77.7,74.5,29.94,West,270,5.0,7.0,90,0.00,,,0.00,meteohub,2013-07-19 08:52:00,
2013-07-19 04:57:00,77.9,74.7,29.94,WNW,293,6.0,7.0,90,0.00,,,0.00,meteohub,2013-07-19 08:57:00,
2013-07-19 05:02:00,77.9,74.5,29.94,NW,315,6.0,7.0,89,0.00,,,0.00,meteohub,2013-07-19 09:02:00,
2013-07-19 05:07:00,77.7,74.3,29.94,NW,315,8.0,8.0,89,0.00,,,0.00,meteohub,2013-07-19 09:07:00,
2013-07-19 05:12:00,77.9,74.5,29.94,WNW,293,6.0,8.0,89,0.00,,,0.00,meteohub,2013-07-19 09:12:00,
2013-07-19 05:17:00,77.9,74.5,29.94,NW,315,5.0,8.0,89,0.00,,,0.00,meteohub,2013-07-19 09:17:00,
2013-07-19 05:22:00,77.9,74.5,29.94,West,270,7.0,8.0,89,0.00,,,0.00,meteohub,2013-07-19 09:22:00,
2013-07-19 05:27:00,77.9,74.5,29.93,West,270,4.0,8.0,89,0.00,,,0.00,meteohub,2013-07-19 09:27:00,
2013-07-19 05:32:00,77.9,74.5,29.93,WSW,248,3.0,8.0,89,0.00,,,0.00,meteohub,2013-07-19 09:32:00,
2013-07-19 05:37:00,77.7,74.3,29.93,West,270,5.0,7.0,89,0.00,,,0.00,meteohub,2013-07-19 09:37:00,
2013-07-19 05:42:00,77.7,74.3,29.93,West,270,8.0,8.0,89,0.00,,,0.00,meteohub,2013-07-19 09:42:00,
2013-07-19 05:47:00,77.7,74.3,29.94,West,270,6.0,8.0,89,0.00,,,0.00,meteohub,2013-07-19 09:47:00,
2013-07-19 05:52:00,77.9,74.5,29.94,WNW,293,6.0,8.0,89,0.00,,,0.00,meteohub,2013-07-19 09:52:00,
2013-07-19 05:57:00,77.5,74.1,29.94,West,270,6.0,8.0,89,0.00,,,0.00,meteohub,2013-07-19 09:57:00,
2013-07-19 06:02:00,77.4,73.9,29.94,West,270,5.0,6.0,89,0.00,,,0.00,meteohub,2013-07-19 10:02:00,
2013-07-19 06:07:00,77.4,73.9,29.93,WNW,293,6.0,9.0,89,0.00,,,0.00,meteohub,2013-07-19 10:07:00,
2013-07-19 06:12:00,77.4,73.9,29.93,WNW,293,6.0,9.0,89,0.00,,,0.00,meteohub,2013-07-19 10:12:00,
2013-07-19 06:17:00,77.2,73.4,29.93,WSW,248,6.0,9.0,88,0.00,,,0.00,meteohub,2013-07-19 10:17:00,
2013-07-19 06:22:00,77.4,73.9,29.93,NW,315,6.0,6.0,89,0.00,,,0.00,meteohub,2013-07-19 10:22:00,
2013-07-19 06:27:00,77.5,74.1,29.93,West,270,9.0,9.0,89,0.00,,,0.00,meteohub,2013-07-19 10:27:00,
2013-07-19 06:32:00,77.7,74.3,29.93,West,270,5.0,8.0,89,0.00,,,0.00,meteohub,2013-07-19 10:32:00,
2013-07-19 06:37:00,77.9,74.1,29.93,West,270,7.0,9.0,88,0.00,,,0.00,meteohub,2013-07-19 10:37:00,
2013-07-19 06:42:00,78.1,74.3,29.93,WNW,293,6.0,9.0,88,0.00,,,0.00,meteohub,2013-07-19 10:42:00,
2013-07-19 06:47:00,78.3,74.5,29.93,NW,315,8.0,8.0,88,0.00,,,0.00,meteohub,2013-07-19 10:47:00,
2013-07-19 06:52:00,78.1,74.3,29.93,NW,315,4.0,8.0,88,0.00,,,0.00,meteohub,2013-07-19 10:52:00,
2013-07-19 06:57:00,78.3,74.5,29.93,NW,315,7.0,8.0,88,0.00,,,0.00,meteohub,2013-07-19 10:57:00,
2013-07-19 07:02:00,78.1,74.3,29.93,NNW,338,6.0,8.0,88,0.00,,,0.00,meteohub,2013-07-19 11:02:00,
2013-07-19 07:07:00,77.7,73.9,29.93,WNW,293,9.0,12.0,88,0.00,,,0.00,meteohub,2013-07-19 11:07:00,
2013-07-19 07:12:00,77.9,74.1,29.93,NW,315,9.0,12.0,88,0.00,,,0.00,meteohub,2013-07-19 11:12:00,
2013-07-19 07:17:00,77.9,74.1,29.93,NNW,338,7.0,11.0,88,0.00,,,0.00,meteohub,2013-07-19 11:17:00,
2013-07-19 07:22:00,77.9,74.1,29.93,WNW,293,8.0,10.0,88,0.00,,,0.00,meteohub,2013-07-19 11:22:00,
2013-07-19 07:27:00,77.9,74.1,29.93,West,270,7.0,10.0,88,0.00,,,0.00,meteohub,2013-07-19 11:27:00,
2013-07-19 07:32:00,78.3,74.5,29.93,WNW,293,12.0,12.0,88,0.00,,,0.00,meteohub,2013-07-19 11:32:00,
2013-07-19 07:37:00,78.3,74.5,29.93,NW,315,7.0,12.0,88,0.00,,,0.00,meteohub,2013-07-19 11:37:00,
2013-07-19 07:42:00,78.6,74.8,29.93,WNW,293,9.0,12.0,88,0.00,,,0.00,meteohub,2013-07-19 11:42:00,
2013-07-19 07:47:00,78.6,74.8,29.93,NW,315,10.0,12.0,88,0.00,,,0.00,meteohub,2013-07-19 11:47:00,
2013-07-19 07:52:00,78.8,75.0,29.93,NW,315,10.0,15.0,88,0.00,,,0.00,meteohub,2013-07-19 11:52:00,
2013-07-19 07:57:00,78.8,74.7,29.93,WNW,293,10.0,15.0,87,0.00,,,0.00,meteohub,2013-07-19 11:57:00,
2013-07-19 08:02:00,78.8,75.0,29.93,West,270,9.0,15.0,88,0.00,,,0.00,meteohub,2013-07-19 12:02:00,
2013-07-19 08:07:00,79.2,75.0,29.93,West,270,12.0,12.0,87,0.00,,,0.00,meteohub,2013-07-19 12:07:00,
2013-07-19 08:12:00,79.3,75.2,29.93,NW,315,13.0,13.0,87,0.00,,,0.00,meteohub,2013-07-19 12:12:00,
2013-07-19 08:17:00,79.2,74.7,29.93,WNW,293,13.0,14.0,86,0.00,,,0.00,meteohub,2013-07-19 12:17:00,
2013-07-19 08:22:00,79.2,74.7,29.93,NW,315,14.0,14.0,86,0.00,,,0.00,meteohub,2013-07-19 12:22:00,
2013-07-19 08:27:00,79.2,74.7,29.93,NW,315,7.0,14.0,86,0.00,,,0.00,meteohub,2013-07-19 12:27:00,
2013-07-19 08:32:00,79.3,74.8,29.93,NW,315,6.0,14.0,86,0.00,,,0.00,meteohub,2013-07-19 12:32:00,
2013-07-19 08:37:00,79.5,75.4,29.93,WNW,293,10.0,14.0,87,0.00,,,0.00,meteohub,2013-07-19 12:37:00,
2013-07-19 08:42:00,79.5,75.0,29.93,NW,315,9.0,9.0,86,0.00,,,0.00,meteohub,2013-07-19 12:42:00,
2013-07-19 08:47:00,79.7,75.2,29.94,NW,315,11.0,11.0,86,0.00,,,0.00,meteohub,2013-07-19 12:47:00,
2013-07-19 08:52:00,79.9,75.4,29.94,WNW,293,8.0,12.0,86,0.00,,,0.00,meteohub,2013-07-19 12:52:00,
2013-07-19 08:57:00,79.7,74.8,29.94,NNE,23,8.0,12.0,85,0.00,,,0.00,meteohub,2013-07-19 12:57:00,
2013-07-19 09:02:00,79.9,75.0,29.94,West,270,11.0,16.0,85,0.00,,,0.00,meteohub,2013-07-19 13:02:00,
2013-07-19 09:07:00,79.9,75.0,29.94,NW,315,13.0,16.0,85,0.00,,,0.00,meteohub,2013-07-19 13:07:00,
2013-07-19 09:12:00,79.9,75.0,29.94,WNW,293,11.0,13.0,85,0.00,,,0.00,meteohub,2013-07-19 13:12:00,
2013-07-19 09:17:00,80.1,75.2,29.94,NW,315,11.0,13.0,85,0.00,,,0.00,meteohub,2013-07-19 13:17:00,
2013-07-19 09:22:00,80.1,75.2,29.94,NNW,338,8.0,15.0,85,0.00,,,0.00,meteohub,2013-07-19 13:22:00,
2013-07-19 09:27:00,80.1,75.2,29.93,NW,315,9.0,15.0,85,0.00,,,0.00,meteohub,2013-07-19 13:27:00,
2013-07-19 09:28:00,80.1,75.2,29.93,NW,315,9.0,15.0,85,0.00,,,0.00,meteohub,2013-07-19 13:28:00,
2013-07-19 09:33:00,80.4,75.2,29.93,NW,315,14.0,15.0,84,0.00,,,0.00,meteohub,2013-07-19 13:33:00,
2013-07-19 09:38:00,80.4,75.2,29.93,WSW,248,9.0,11.0,84,0.00,,,0.00,meteohub,2013-07-19 13:38:00,
2013-07-19 09:43:00,80.4,75.2,29.94,NW,315,16.0,17.0,84,0.00,,,0.00,meteohub,2013-07-19 13:43:00,
2013-07-19 09:48:00,80.4,75.2,29.94,NW,315,13.0,17.0,84,0.00,,,0.00,meteohub,2013-07-19 13:48:00,
2013-07-19 09:53:00,80.4,75.2,29.94,NW,315,11.0,17.0,84,0.00,,,0.00,meteohub,2013-07-19 13:53:00,
2013-07-19 09:58:00,80.6,75.0,29.94,East,90,9.0,17.0,83,0.00,,,0.00,meteohub,2013-07-19 13:58:00,
2013-07-19 10:04:00,80.8,75.2,29.94,NW,315,9.0,18.0,83,0.00,,,0.00,meteohub,2013-07-19 14:04:00,
2013-07-19 10:09:00,81.1,75.6,29.94,WNW,293,15.0,18.0,83,0.00,,,0.00,meteohub,2013-07-19 14:09:00,
2013-07-19 10:14:00,81.5,75.9,29.94,NNW,338,12.0,18.0,83,0.00,,,0.00,meteohub,2013-07-19 14:14:00,
2013-07-19 10:19:00,81.7,75.9,29.94,NW,315,13.0,17.0,83,0.00,,,0.00,meteohub,2013-07-19 14:19:00,
2013-07-19 10:24:00,81.9,75.7,29.93,NW,315,17.0,17.0,82,0.00,,,0.00,meteohub,2013-07-19 14:24:00,
2013-07-19 10:29:00,81.9,75.7,29.93,NW,315,18.0,20.0,82,0.00,,,0.00,meteohub,2013-07-19 14:29:00,
2013-07-19 10:34:00,82.2,76.1,29.93,WNW,293,14.0,20.0,82,0.00,,,0.00,meteohub,2013-07-19 14:34:00,
2013-07-19 10:39:00,82.0,75.6,29.93,WNW,293,13.0,20.0,81,0.00,,,0.00,meteohub,2013-07-19 14:39:00,
2013-07-19 10:44:00,82.2,76.1,29.93,WSW,248,10.0,18.0,82,0.00,,,0.00,meteohub,2013-07-19 14:44:00,
2013-07-19 10:49:00,82.6,76.5,29.93,North,0,14.0,17.0,82,0.00,,,0.00,meteohub,2013-07-19 14:49:00,
2013-07-19 10:55:00,82.4,76.3,29.93,WNW,293,11.0,17.0,82,0.00,,,0.00,meteohub,2013-07-19 14:55:00,
2013-07-19 11:00:00,82.9,76.8,29.93,NW,315,14.0,18.0,82,0.00,,,0.00,meteohub,2013-07-19 15:00:00,
2013-07-19 11:05:00,82.9,76.5,29.93,NW,315,18.0,18.0,81,0.00,,,0.00,meteohub,2013-07-19 15:05:00,
2013-07-19 11:10:00,83.1,76.6,29.93,West,270,15.0,18.0,81,0.00,,,0.00,meteohub,2013-07-19 15:10:00,
2013-07-19 11:15:00,83.1,76.6,29.93,WNW,293,14.0,18.0,81,0.00,,,0.00,meteohub,2013-07-19 15:15:00,
2013-07-19 11:20:00,83.1,76.3,29.93,NW,315,11.0,18.0,80,0.00,,,0.00,meteohub,2013-07-19 15:20:00,
2013-07-19 11:25:00,83.5,77.0,29.92,WSW,248,12.0,18.0,81,0.00,,,0.00,meteohub,2013-07-19 15:25:00,
2013-07-19 11:30:00,83.8,77.0,29.92,NW,315,15.0,18.0,80,0.00,,,0.00,meteohub,2013-07-19 15:30:00,
2013-07-19 11:36:00,83.7,76.8,29.92,NW,315,16.0,18.0,80,0.00,,,0.00,meteohub,2013-07-19 15:36:00,
2013-07-19 11:41:00,83.8,76.6,29.92,NW,315,17.0,17.0,79,0.00,,,0.00,meteohub,2013-07-19 15:41:00,
2013-07-19 11:46:00,83.7,76.5,29.92,WNW,293,14.0,18.0,79,0.00,,,0.00,meteohub,2013-07-19 15:46:00,
2013-07-19 11:51:00,84.0,76.8,29.92,NW,315,17.0,18.0,79,0.00,,,0.00,meteohub,2013-07-19 15:51:00,
2013-07-19 11:56:00,84.2,77.0,29.92,West,270,14.0,18.0,79,0.00,,,0.00,meteohub,2013-07-19 15:56:00,
2013-07-19 12:01:00,84.4,76.5,29.92,NW,315,14.0,17.0,77,0.00,,,0.00,meteohub,2013-07-19 16:01:00,
2013-07-19 12:06:00,84.7,76.6,29.92,WSW,248,15.0,18.0,77,0.00,,,0.00,meteohub,2013-07-19 16:06:00,
2013-07-19 12:11:00,84.7,76.6,29.92,WSW,248,15.0,18.0,77,0.00,,,0.00,meteohub,2013-07-19 16:11:00,
2013-07-19 12:16:00,85.3,76.5,29.92,NW,315,9.0,15.0,75,0.00,,,0.00,meteohub,2013-07-19 16:16:00,
2013-07-19 12:22:00,85.5,76.3,29.92,NW,315,5.0,15.0,74,0.00,,,0.00,meteohub,2013-07-19 16:22:00,
2013-07-19 12:27:00,85.8,76.1,29.91,NW,315,18.0,18.0,73,0.00,,,0.00,meteohub,2013-07-19 16:27:00,
2013-07-19 12:32:00,86.2,76.1,29.91,WNW,293,14.0,18.0,72,0.00,,,0.00,meteohub,2013-07-19 16:32:00,
2013-07-19 12:37:00,86.5,76.5,29.91,WNW,293,9.0,18.0,72,0.00,,,0.00,meteohub,2013-07-19 16:37:00,
2013-07-19 12:42:00,86.5,75.9,29.91,NW,315,9.0,18.0,71,0.00,,,0.00,meteohub,2013-07-19 16:42:00,
2013-07-19 12:47:00,86.7,76.1,29.90,NW,315,12.0,14.0,71,0.00,,,0.00,meteohub,2013-07-19 16:47:00,
2013-07-19 12:52:00,87.1,76.5,29.90,NW,315,14.0,16.0,71,0.00,,,0.00,meteohub,2013-07-19 16:52:00,
2013-07-19 12:57:00,87.3,76.6,29.90,West,270,9.0,16.0,71,0.00,,,0.00,meteohub,2013-07-19 16:57:00,
2013-07-19 13:02:00,87.4,76.8,29.90,NW,315,15.0,16.0,71,0.00,,,0.00,meteohub,2013-07-19 17:02:00,
2013-07-19 13:07:00,87.6,77.0,29.90,WNW,293,12.0,15.0,71,0.00,,,0.00,meteohub,2013-07-19 17:07:00,
2013-07-19 13:12:00,87.6,76.6,29.90,West,270,12.0,15.0,70,0.00,,,0.00,meteohub,2013-07-19 17:12:00,
2013-07-19 13:17:00,88.0,77.4,29.90,SSW,203,11.0,16.0,71,0.00,,,0.00,meteohub,2013-07-19 17:17:00,
2013-07-19 13:22:00,88.2,77.2,29.90,WNW,293,13.0,16.0,70,0.00,,,0.00,meteohub,2013-07-19 17:22:00,
2013-07-19 13:27:00,88.9,78.3,29.89,West,270,6.0,13.0,71,0.00,,,0.00,meteohub,2013-07-19 17:27:00,
2013-07-19 13:32:00,89.4,78.8,29.89,West,270,4.0,14.0,71,0.00,,,0.00,meteohub,2013-07-19 17:32:00,
2013-07-19 13:37:00,90.0,78.4,29.89,West,270,9.0,14.0,69,0.00,,,0.00,meteohub,2013-07-19 17:37:00,
2013-07-19 13:42:00,90.1,79.0,29.89,SSW,203,6.0,14.0,70,0.00,,,0.00,meteohub,2013-07-19 17:42:00,
2013-07-19 13:47:00,90.5,79.0,29.89,WSW,248,13.0,13.0,69,0.00,,,0.00,meteohub,2013-07-19 17:47:00,
2013-07-19 13:52:00,90.5,79.3,29.89,NW,315,5.0,13.0,70,0.00,,,0.00,meteohub,2013-07-19 17:52:00,
2013-07-19 13:57:00,90.9,79.7,29.89,WNW,293,9.0,13.0,70,0.00,,,0.00,meteohub,2013-07-19 17:57:00,
2013-07-19 14:02:00,90.9,80.1,29.89,NNE,23,12.0,13.0,71,0.00,,,0.00,meteohub,2013-07-19 18:02:00,
2013-07-19 14:07:00,91.2,80.1,29.88,WNW,293,14.0,14.0,70,0.00,,,0.00,meteohub,2013-07-19 18:07:00,
2013-07-19 14:12:00,91.6,80.4,29.88,West,270,20.0,20.0,70,0.00,,,0.00,meteohub,2013-07-19 18:12:00,
2013-07-19 14:17:00,91.6,79.9,29.88,WSW,248,15.0,20.0,69,0.00,,,0.00,meteohub,2013-07-19 18:17:00,
2013-07-19 14:22:00,91.6,79.9,29.88,WSW,248,17.0,20.0,69,0.00,,,0.00,meteohub,2013-07-19 18:22:00,
2013-07-19 14:27:00,91.4,79.3,29.88,West,270,13.0,20.0,68,0.00,,,0.00,meteohub,2013-07-19 18:27:00,
2013-07-19 14:32:00,91.2,79.7,29.88,NW,315,18.0,20.0,69,0.00,,,0.00,meteohub,2013-07-19 18:32:00,
2013-07-19 14:37:00,91.0,79.5,29.88,West,270,17.0,18.0,69,0.00,,,0.00,meteohub,2013-07-19 18:37:00,
2013-07-19 14:42:00,90.3,78.8,29.88,West,270,15.0,21.0,69,0.00,,,0.00,meteohub,2013-07-19 18:42:00,
2013-07-19 14:47:00,89.8,78.6,29.87,West,270,11.0,22.0,70,0.00,,,0.00,meteohub,2013-07-19 18:47:00,
2013-07-19 14:52:00,89.4,78.8,29.87,WNW,293,10.0,22.0,71,0.00,,,0.00,meteohub,2013-07-19 18:52:00,
2013-07-19 14:57:00,89.1,78.4,29.87,West,270,12.0,22.0,71,0.00,,,0.00,meteohub,2013-07-19 18:57:00,
2013-07-19 15:02:00,88.7,78.1,29.87,West,270,16.0,16.0,71,0.00,,,0.00,meteohub,2013-07-19 19:02:00,
2013-07-19 15:07:00,88.5,78.3,29.86,WNW,293,12.0,16.0,72,0.00,,,0.00,meteohub,2013-07-19 19:07:00,
2013-07-19 15:12:00,88.5,78.3,29.86,West,270,17.0,17.0,72,0.00,,,0.00,meteohub,2013-07-19 19:12:00,
2013-07-19 15:17:00,88.2,77.9,29.86,WNW,293,15.0,17.0,72,0.00,,,0.00,meteohub,2013-07-19 19:17:00,
2013-07-19 15:22:00,88.5,78.3,29.85,NW,315,12.0,17.0,72,0.00,,,0.00,meteohub,2013-07-19 19:22:00,
2013-07-19 15:27:00,88.9,78.6,29.85,West,270,13.0,17.0,72,0.00,,,0.00,meteohub,2013-07-19 19:27:00,
2013-07-19 15:33:00,90.5,79.9,29.85,West,270,14.0,17.0,71,0.00,,,0.00,meteohub,2013-07-19 19:33:00,
2013-07-19 15:38:00,91.0,80.2,29.85,WSW,248,9.0,15.0,71,0.00,,,0.00,meteohub,2013-07-19 19:38:00,
2013-07-19 15:43:00,91.6,79.5,29.84,SW,225,14.0,15.0,68,0.00,,,0.00,meteohub,2013-07-19 19:43:00,
2013-07-19 15:48:00,91.8,79.7,29.84,West,270,18.0,18.0,68,0.00,,,0.00,meteohub,2013-07-19 19:48:00,
2013-07-19 15:53:00,90.9,78.4,29.84,West,270,17.0,18.0,67,0.00,,,0.00,meteohub,2013-07-19 19:53:00,
2013-07-19 15:58:00,90.5,78.4,29.84,WNW,293,18.0,19.0,68,0.00,,,0.00,meteohub,2013-07-19 19:58:00,
2013-07-19 16:03:00,90.0,77.9,29.84,WSW,248,20.0,20.0,68,0.00,,,0.00,meteohub,2013-07-19 20:03:00,
2013-07-19 16:08:00,89.4,77.5,29.84,West,270,15.0,20.0,68,0.00,,,0.00,meteohub,2013-07-19 20:08:00,
2013-07-19 16:13:00,89.8,78.3,29.84,NW,315,15.0,20.0,69,0.00,,,0.00,meteohub,2013-07-19 20:13:00,
2013-07-19 16:19:00,90.5,78.4,29.84,WSW,248,13.0,20.0,68,0.00,,,0.00,meteohub,2013-07-19 20:19:00,
2013-07-19 16:24:00,91.2,78.8,29.84,WSW,248,14.0,17.0,67,0.00,,,0.00,meteohub,2013-07-19 20:24:00,
2013-07-19 16:29:00,90.9,78.4,29.84,West,270,9.0,18.0,67,0.00,,,0.00,meteohub,2013-07-19 20:29:00,
2013-07-19 16:34:00,91.0,78.6,29.84,WSW,248,14.0,18.0,67,0.00,,,0.00,meteohub,2013-07-19 20:34:00,
2013-07-19 16:39:00,90.7,78.3,29.84,WSW,248,17.0,18.0,67,0.00,,,0.00,meteohub,2013-07-19 20:39:00,
2013-07-19 16:44:00,90.9,78.4,29.83,WSW,248,18.0,18.0,67,0.00,,,0.00,meteohub,2013-07-19 20:44:00,
2013-07-19 16:49:00,90.9,78.8,29.83,WSW,248,13.0,20.0,68,0.00,,,0.00,meteohub,2013-07-19 20:49:00,
2013-07-19 16:54:00,91.2,78.8,29.83,West,270,23.0,23.0,67,0.00,,,0.00,meteohub,2013-07-19 20:54:00,
2013-07-19 16:59:00,91.0,78.6,29.83,WSW,248,17.0,22.0,67,0.00,,,0.00,meteohub,2013-07-19 20:59:00,
2013-07-19 17:04:00,91.2,78.8,29.81,WSW,248,16.0,23.0,67,0.00,,,0.00,meteohub,2013-07-19 21:04:00,
2013-07-19 17:10:00,90.5,78.1,29.81,WSW,248,14.0,23.0,67,0.00,,,0.00,meteohub,2013-07-19 21:10:00,
2013-07-19 17:15:00,90.3,77.9,29.81,WSW,248,11.0,23.0,67,0.00,,,0.00,meteohub,2013-07-19 21:15:00,
2013-07-19 17:20:00,90.3,77.9,29.81,SSW,203,17.0,26.0,67,0.00,,,0.00,meteohub,2013-07-19 21:20:00,
2013-07-19 17:25:00,89.8,77.4,29.80,WSW,248,14.0,26.0,67,0.00,,,0.00,meteohub,2013-07-19 21:25:00,
2013-07-19 17:30:00,90.1,78.1,29.80,West,270,21.0,26.0,68,0.00,,,0.00,meteohub,2013-07-19 21:30:00,
2013-07-19 17:35:00,89.8,77.4,29.80,WSW,248,18.0,25.0,67,0.00,,,0.00,meteohub,2013-07-19 21:35:00,
2013-07-19 17:41:00,89.4,77.0,29.80,WNW,293,14.0,25.0,67,0.00,,,0.00,meteohub,2013-07-19 21:41:00,
2013-07-19 17:46:00,89.4,77.0,29.79,WSW,248,20.0,25.0,67,0.00,,,0.00,meteohub,2013-07-19 21:46:00,
2013-07-19 17:51:00,88.9,76.5,29.79,WSW,248,15.0,21.0,67,0.00,,,0.00,meteohub,2013-07-19 21:51:00,
2013-07-19 17:56:00,88.9,76.5,29.79,WSW,248,15.0,21.0,67,0.00,,,0.00,meteohub,2013-07-19 21:56:00,
2013-07-19 18:01:00,88.7,76.3,29.79,West,270,14.0,24.0,67,0.00,,,0.00,meteohub,2013-07-19 22:01:00,
2013-07-19 18:06:00,88.3,76.5,29.79,West,270,30.0,30.0,68,0.00,,,0.00,meteohub,2013-07-19 22:06:00,
2013-07-19 18:11:00,88.0,76.5,29.79,West,270,28.0,30.0,69,0.00,,,0.00,meteohub,2013-07-19 22:11:00,
2013-07-19 18:16:00,87.8,76.3,29.79,West,270,18.0,30.0,69,0.00,,,0.00,meteohub,2013-07-19 22:16:00,
2013-07-19 18:21:00,87.6,76.1,29.79,WSW,248,21.0,30.0,69,0.00,,,0.00,meteohub,2013-07-19 22:21:00,
2013-07-19 18:27:00,87.3,76.3,29.79,West,270,26.0,28.0,70,0.00,,,0.00,meteohub,2013-07-19 22:27:00,
2013-07-19 18:32:00,86.7,75.7,29.79,WNW,293,13.0,26.0,70,0.00,,,0.00,meteohub,2013-07-19 22:32:00,
2013-07-19 18:37:00,86.4,75.4,29.79,West,270,23.0,29.0,70,0.00,,,0.00,meteohub,2013-07-19 22:37:00,
2013-07-19 18:42:00,86.4,75.4,29.79,WSW,248,17.0,29.0,70,0.00,,,0.00,meteohub,2013-07-19 22:42:00,
2013-07-19 18:47:00,86.2,75.7,29.79,WSW,248,26.0,26.0,71,0.00,,,0.00,meteohub,2013-07-19 22:47:00,
2013-07-19 18:52:00,85.6,75.2,29.79,WNW,293,14.0,26.0,71,0.00,,,0.00,meteohub,2013-07-19 22:52:00,
2013-07-19 18:57:00,85.5,75.4,29.79,WSW,248,19.0,26.0,72,0.00,,,0.00,meteohub,2013-07-19 22:57:00,
2013-07-19 19:02:00,85.3,75.6,29.79,WSW,248,17.0,26.0,73,0.00,,,0.00,meteohub,2013-07-19 23:02:00,
2013-07-19 19:07:00,85.1,75.4,29.80,West,270,18.0,27.0,73,0.00,,,0.00,meteohub,2013-07-19 23:07:00,
2013-07-19 19:12:00,84.7,75.2,29.80,WSW,248,12.0,27.0,73,0.00,,,0.00,meteohub,2013-07-19 23:12:00,
2013-07-19 19:17:00,84.4,74.8,29.80,WSW,248,15.0,27.0,73,0.00,,,0.00,meteohub,2013-07-19 23:17:00,
2013-07-19 19:22:00,84.2,75.0,29.80,WSW,248,23.0,23.0,74,0.00,,,0.00,meteohub,2013-07-19 23:22:00,
2013-07-19 19:27:00,83.8,75.0,29.80,West,270,22.0,28.0,75,0.00,,,0.00,meteohub,2013-07-19 23:27:00,
2013-07-19 19:32:00,83.3,74.5,29.80,NW,315,31.0,31.0,75,0.00,,,0.00,meteohub,2013-07-19 23:32:00,
2013-07-19 19:37:00,82.9,74.7,29.80,SW,225,21.0,31.0,76,0.00,,,0.00,meteohub,2013-07-19 23:37:00,
2013-07-19 19:42:00,82.6,74.3,29.80,WSW,248,22.0,32.0,76,0.00,,,0.00,meteohub,2013-07-19 23:42:00,
2013-07-19 19:47:00,82.2,73.9,29.80,WSW,248,15.0,32.0,76,0.00,,,0.00,meteohub,2013-07-19 23:47:00,
2013-07-19 19:52:00,81.9,73.6,29.80,WSW,248,25.0,32.0,76,0.00,,,0.00,meteohub,2013-07-19 23:52:00,
2013-07-19 19:57:00,81.5,73.6,29.80,WSW,248,26.0,26.0,77,0.00,,,0.00,meteohub,2013-07-19 23:57:00,
2013-07-19 20:02:00,81.1,73.2,29.80,West,270,18.0,26.0,77,0.00,,,0.00,meteohub,2013-07-20 00:02:00,
2013-07-19 20:07:00,81.0,73.0,29.81,WSW,248,16.0,28.0,77,0.00,,,0.00,meteohub,2013-07-20 00:07:00,
2013-07-19 20:12:00,80.8,72.9,29.81,WNW,293,23.0,28.0,77,0.00,,,0.00,meteohub,2013-07-20 00:12:00,
2013-07-19 20:17:00,80.4,72.9,29.81,West,270,20.0,23.0,78,0.00,,,0.00,meteohub,2013-07-20 00:17:00,
2013-07-19 20:22:00,80.4,72.9,29.81,WSW,248,17.0,23.0,78,0.00,,,0.00,meteohub,2013-07-20 00:22:00,
2013-07-19 20:27:00,80.2,72.7,29.81,WSW,248,15.0,23.0,78,0.00,,,0.00,meteohub,2013-07-20 00:27:00,
2013-07-19 20:32:00,79.9,72.9,29.81,West,270,17.0,32.0,79,0.00,,,0.00,meteohub,2013-07-20 00:32:00,
2013-07-19 20:37:00,80.1,73.0,29.81,WSW,248,20.0,32.0,79,0.00,,,0.00,meteohub,2013-07-20 00:37:00,
2013-07-19 20:43:00,79.7,72.7,29.81,WSW,248,17.0,32.0,79,0.00,,,0.00,meteohub,2013-07-20 00:43:00,
2013-07-19 20:48:00,79.5,72.9,29.81,WSW,248,17.0,25.0,80,0.00,,,0.00,meteohub,2013-07-20 00:48:00,
2013-07-19 20:53:00,79.3,72.3,29.81,WSW,248,15.0,29.0,79,0.00,,,0.00,meteohub,2013-07-20 00:53:00,
2013-07-19 20:58:00,79.3,72.7,29.81,SW,225,17.0,29.0,80,0.00,,,0.00,meteohub,2013-07-20 00:58:00,
2013-07-19 21:03:00,79.2,72.5,29.80,NW,315,19.0,29.0,80,0.00,,,0.00,meteohub,2013-07-20 01:03:00,
2013-07-19 21:08:00,79.3,72.7,29.80,WNW,293,19.0,23.0,80,0.00,,,0.00,meteohub,2013-07-20 01:08:00,
2013-07-19 21:13:00,79.2,72.9,29.80,West,270,24.0,25.0,81,0.00,,,0.00,meteohub,2013-07-20 01:13:00,
2013-07-19 21:18:00,79.2,72.9,29.80,West,270,11.0,29.0,81,0.00,,,0.00,meteohub,2013-07-20 01:18:00,
2013-07-19 21:24:00,79.0,72.7,29.81,WSW,248,21.0,29.0,81,0.00,,,0.00,meteohub,2013-07-20 01:24:00,
2013-07-19 21:29:00,79.0,72.7,29.81,West,270,22.0,29.0,81,0.00,,,0.00,meteohub,2013-07-20 01:29:00,
2013-07-19 21:34:00,79.0,72.7,29.81,West,270,20.0,23.0,81,0.00,,,0.00,meteohub,2013-07-20 01:34:00,
2013-07-19 21:39:00,78.8,72.9,29.81,WSW,248,26.0,26.0,82,0.00,,,0.00,meteohub,2013-07-20 01:39:00,
2013-07-19 21:44:00,78.6,72.7,29.82,WSW,248,15.0,22.0,82,0.00,,,0.00,meteohub,2013-07-20 01:44:00,
2013-07-19 21:49:00,78.6,72.7,29.82,WNW,293,17.0,28.0,82,0.00,,,0.00,meteohub,2013-07-20 01:49:00,
2013-07-19 21:55:00,78.4,72.5,29.82,WSW,248,19.0,28.0,82,0.00,,,0.00,meteohub,2013-07-20 01:55:00,
2013-07-19 22:00:00,78.6,72.7,29.82,WNW,293,22.0,26.0,82,0.00,,,0.00,meteohub,2013-07-20 02:00:00,
2013-07-19 22:05:00,79.0,73.0,29.82,West,270,15.0,25.0,82,0.00,,,0.00,meteohub,2013-07-20 02:05:00,
2013-07-19 22:10:00,79.2,73.2,29.82,West,270,24.0,25.0,82,0.00,,,0.00,meteohub,2013-07-20 02:10:00,
2013-07-19 22:15:00,79.2,73.2,29.82,West,270,27.0,27.0,82,0.00,,,0.00,meteohub,2013-07-20 02:15:00,
2013-07-19 22:21:00,79.5,73.6,29.82,WNW,293,20.0,27.0,82,0.00,,,0.00,meteohub,2013-07-20 02:21:00,
2013-07-19 22:26:00,79.5,73.6,29.82,West,270,23.0,27.0,82,0.00,,,0.00,meteohub,2013-07-20 02:26:00,
2013-07-19 22:31:00,79.5,73.6,29.82,WSW,248,14.0,31.0,82,0.00,,,0.00,meteohub,2013-07-20 02:31:00,
2013-07-19 22:37:00,79.5,73.6,29.82,NW,315,17.0,31.0,82,0.00,,,0.00,meteohub,2013-07-20 02:37:00,
2013-07-19 22:42:00,79.5,73.6,29.82,WNW,293,14.0,31.0,82,0.00,,,0.00,meteohub,2013-07-20 02:42:00,
2013-07-19 22:47:00,79.7,73.8,29.81,NW,315,13.0,24.0,82,0.00,,,0.00,meteohub,2013-07-20 02:47:00,
2013-07-19 22:52:00,79.7,73.8,29.81,SE,135,13.0,27.0,82,0.00,,,0.00,meteohub,2013-07-20 02:52:00,
2013-07-19 22:57:00,79.7,73.8,29.81,North,0,7.0,27.0,82,0.00,,,0.00,meteohub,2013-07-20 02:57:00,
2013-07-19 23:02:00,78.6,72.0,29.81,NNW,338,11.0,27.0,80,0.00,,,0.00,meteohub,2013-07-20 03:02:00,
2013-07-19 23:07:00,77.7,71.4,29.81,NW,315,15.0,15.0,81,0.00,,,0.00,meteohub,2013-07-20 03:07:00,
2013-07-19 23:12:00,77.2,71.2,29.81,NNW,338,11.0,15.0,82,0.00,,,0.00,meteohub,2013-07-20 03:12:00,
2013-07-19 23:17:00,77.2,71.6,29.81,NW,315,14.0,15.0,83,0.00,,,0.00,meteohub,2013-07-20 03:17:00,
2013-07-19 23:23:00,77.2,72.0,29.80,West,270,14.0,15.0,84,0.00,,,0.00,meteohub,2013-07-20 03:23:00,
2013-07-19 23:28:00,77.5,72.3,29.80,WNW,293,17.0,17.0,84,0.00,,,0.00,meteohub,2013-07-20 03:28:00,
2013-07-19 23:33:00,77.9,73.0,29.80,NW,315,11.0,17.0,85,0.00,,,0.00,meteohub,2013-07-20 03:33:00,
2013-07-19 23:35:00,77.9,73.0,29.80,NNW,338,15.0,24.0,85,0.00,,,0.00,meteohub,2013-07-20 03:35:00,
2013-07-19 23:41:00,78.1,72.9,29.80,NNW,338,17.0,24.0,84,0.00,,,0.00,meteohub,2013-07-20 03:41:00,
2013-07-19 23:46:00,77.9,72.7,29.81,NNW,338,12.0,24.0,84,0.00,,,0.00,meteohub,2013-07-20 03:46:00,
2013-07-19 23:51:00,77.9,72.7,29.81,NW,315,14.0,19.0,84,0.00,,,0.00,meteohub,2013-07-20 03:51:00,
2013-07-19 23:56:00,77.9,73.0,29.81,NW,315,9.0,17.0,85,0.00,,,0.00,meteohub,2013-07-20 03:56:00,